www.pogodaiklimat.ru

Погода и климат >> Архив погоды >> Буркина-Фасо >> Fada N`Gourma


ПОГОДА в Fada N`Gourma

  • Прогноз погоды в Fada N`Gourma
  • Монитор погоды в Fada N`Gourma
  • Климат города

АРХИВ ПОГОДЫ в Fada N`Gourma

Время (UTC), дата Ветер
(напр.,м/с)
 
Видим.   Явления Облачность Т
(С)
Тd
(С)
f
(%)
Тe
(С)
Тes
(С)
Комфортность P
(гПа)
Po
(гПа)
Тmin
(С)
Tmax
(С)
R
(мм)
S
(см)
00 19.03 Ю 1 10 км 9/0
[Ci sp]
+30.0 +16.2 43 +33 +33 душно 1006.5 972.9
03 19.03 СВ 1 10 км 9/0
[Ci sp]
+28.4 +16.1 47 +32 +32 душно 1005.4 972.0
06 19.03 ЮВ 2 10 км 9/0
[Ci sp]
+27.3 +13.6 43 +29 +29 жарко 1007.4 973.6 +27.3
09 19.03 Ю 5 10 км 9/0
[Ci sp]
+34.3 +17.6 37 +38 +42 очень
душно
1008.7 975.0
12 19.03 Ю 1 10 км 9/1 800 м
[Sc Ci sp]
+39.0 +16.9 27 +41 +60 опасность
перегрева
1007.0 973.4
15 19.03 В 1 15 км 9/5 800 м
[Cu hum Ci sp]
+40.9 +14.5 21 +41 +47 опасность
перегрева
1004.2 970.7
18 19.03 СЗ 1 10 км 9/1 800 м
[Sc Ci sp]
+38.0 +19.0 33 +42 +42 опасность
перегрева
1004.1 970.4 +41.8
00 20.03 СВ 1 10 км 9/0
[Ci sp]
+32.5 +14.0 33 +34 +34 очень
жарко
1007.1 973.6
03 20.03 В 1 10 км 9/0
[Ac trans Ci sp]
+28.9 +13.2 38 +30 +30 жарко 1005.9 972.4
06 20.03 Ю 2 10 км 9/0
[Ac trans Ci sp]
+29.4 +15.8 44 +32 +32 душно 1008.8 975.0 +28.9
09 20.03 ЮЗ 5 10 км 9/0
[Ci sp]
+31.8 +20.0 50 +38 +43 очень
душно
1010.9 977.0
12 20.03 ЮЗ 2 10 км 9/0
[Ci sp]
+36.4 +18.7 35 +41 +58 опасность
перегрева
1009.9 976.2
15 20.03 З 1 10 км 9/0
[Ci sp]
+39.3 +15.2 24 +40 +50 очень
душно
1006.9 973.3
18 20.03 штиль 0 10 км 9/0
[Ci sp]
+37.3 +18.0 32 +41 +41 опасность
перегрева
1006.9 973.2 +40.2
00 21.03 ЮЗ 1 10 км 9/0
[Ci sp]
+31.2 +17.7 45 +35 +35 очень
душно
1008.6 974.9
03 21.03 З 1 10 км 9/0
[Ci sp]
+29.4 +17.5 49 +34 +34 очень
душно
1007.2 973.5
06 21.03 СВ 1 10 км 9/0
[Ci sp]
+28.0 +17.3 52 +32 +32 душно 1007.4 973.6 +28.0
09 21.03 СЗ 4 10 км 9/0
[Ci sp]
+33.4 +16.0 35 +36 +42 очень
душно
1008.9 975.1
12 21.03 С 1 10 км 9/0
[Ci sp]
+39.7 +12.5 20 +39 +60 опасность
солнечного
удара
1006.5 973.1
15 21.03 ЮВ 1 10 км 9/0
[Ci sp]
+41.3 +13.3 19 +41 +51 опасность
перегрева
1004.1 970.7
18 21.03 С 2 4000 м пыль 9/0
[Ci sp]
+38.5 +7.6 15 +36 +36 очень
жарко
1005.2 971.5 +42.3
00 22.03 С 2 10 км 9/0
[Ci sp]
+31.9 +8.3 23 +31 +31 жарко 1007.3 973.8
03 22.03 В 2 10 км 9/0
[Ci sp]
+31.2 +6.7 22 +30 +30 жарко 1005.2 971.9
06 22.03 С 2 10 км 9/0
[Ci sp]
+29.0 +6.6 24 +28 +28 жарко 1006.7 973.1 +29.0
12 22.03 С 3 6000 м пыль 9/0
[Ci sp]
+38.0 +4.5 13 +35 +49 очень
жарко
1007.9 974.3
15 22.03 СВ 4 6000 м пыль 9/0
[Ci sp]
+39.5 -0.4 8 +36 +41 очень
жарко
1004.9 971.5
18 22.03 В 3 6000 м пыль 9/0
[Ac trans Ci sp]
+37.6 +5.0 13 +35 +35 очень
жарко
1005.3 971.7 +40.2
00 23.03 СЗ 1 8000 м пыль 9/0
[Ci sp]
+29.2 +10.4 31 +29 +29 жарко 1007.4 973.7
03 23.03 СЗ 1 8000 м пыль 9/0
[Ci sp]
+27.0 +10.9 37 +28 +28 жарко 1006.1 972.5
06 23.03 штиль 0 8000 м пыль 9/0
[Ci sp]
+27.7 +13.3 41 +26 +26 жарко 1008.3 974.5 +26.6
09 23.03 Ю 4 6000 м пыль 9/0
[Ci sp]
+33.9 +14.8 32 +36 +41 душно 1009.9 976.0
12 23.03 штиль 0 10 км 9/0
[Ci sp]
+39.0 +12.5 21 +39 +63 опасность
солнечного
удара
1008.3 974.6
15 23.03 СВ 2 10 км 9/0
[Ci sp]
+40.7 +10.8 17 +40 +48 очень
жарко
1004.5 971.0
18 23.03 С 1 10 км 9/0
[Ci sp]
+37.9 +7.0 15 +35 +35 очень
жарко
1005.2 971.5 +41.2
00 24.03 С 2 10 км 9/0
[Ci sp]
+31.0 +6.7 22 +30 +30 жарко 1008.1 974.5
03 24.03 штиль 0 10 км 9/0
[Ci sp]
+30.6 +6.5 22 +29 +29 жарко 1008.2 974.7
06 24.03 штиль 0 10 км 9/0
[Ac trans Ci sp]
+28.1 +19.5 60 +34 +34 очень
душно
1009.4 975.6 +28.1
09 24.03 З 2 10 км 9/0
[Ac trans Ci sp]
+31.9 +19.0 46 +37 +46 очень
душно
1011.1 977.1
12 24.03 СВ 2 10 км 9/0
[Ac trans Ci sp]
+37.1 +12.8 23 +37 +51 опасность
солнечного
удара
1009.1 975.4
15 24.03 С 3 10 км 9/0
[Ac trans Ci sp]
+39.1 +6.3 14 +37 +42 очень
жарко
1006.6 973.1
18 24.03 С 2 10 км 9/0
[Ac trans Ci sp]
+37.3 +3.1 12 1007.1 +39.9
00 25.03 СЗ 1 10 км 9/0
[Ci sp]
+28.5 +9.8 31 +29 +29 жарко 1009.2 975.3
03 25.03 С 1 10 км 9/0
[Ci sp]
+28.2 +7.2 27 +28 +28 жарко 1007.9 974.2
06 25.03 В 1 10 км 9/0
[Ci sp]
+28.7 +4.1 21 +27 +27 жарко 1009.1 975.3 +27.4
09 25.03 Ю 3 10 км 9/0
[Ci sp]
+35.0 +2.4 13 +34 +41 очень
жарко
1010.9 977.0
12 25.03 С 3 10 км 9/0
[Ci sp]
+39.8 +1.0 9 +36 +51 опасность
солнечного
удара
1009.2 975.5
15 25.03 С 3 10 км 9/0
[Ac trans Ci sp]
+41.4 -1.3 7 +37 +44 очень
жарко
1005.2 971.7
18 25.03 штиль 0 10 км 9/0
[Ac trans Ci sp]
+39.2 +2.0 10 +36 +36 очень
жарко
1005.7 972.1 +42.4

 

Местоположение метеостанции Fada N`Gourma (Буркина-Фасо): широта 12.03 долгота 0.37 высота над уровнем моря 309 м.

В архиве по умолчанию представлена погода в Fada N`Gourma за последнюю неделю. Архивные данные за месяц целиком и за предыдущие месяцы, начиная с января 2011 года, Вы можете получить, выбрав интересующий диапазон дат из раскрывающегося списка и нажав кнопку "Ввод!".

Внимание! Время в таблицах - всемирное. Для получения местного времени необходимо прибавить поправку, которая в Fada N`Gourma равна 0 ч.

Смотрите также архив погоды в соседних городах и на ближайших метеорологических станциях:

Погода в Dapaon (Того) (129 км)
Погода в Mango (Того) (185 км)
Погода в Po (Буркина-Фасо) (192 км)
Погода в Navrongo (Гана) (204 км)
Погода в Ouagadougou (Буркина-Фасо) (209 км)
Погода в Natitingou (Бенин) (220 км)
Погода в Dori (Буркина-Фасо) (227 км)
Погода в Niamey-Aero (Нигер) (253 км)
Погода в Niamtougou (Того) (264 км)
Погода в Tillabery (Нигер) (268 км)

Пояснения к столбцам:

Ветер - указаны скорость ветра в м/с - средняя за 10 мин, порывы в срок и между сроками (в фигурных скобках) и направление, откуда дует ветер: С - северный, СВ - северо-восточный, В - восточный, ЮВ - юго-восточный, Ю - южный, ЮЗ - юго-западный, З - западный, СЗ - северо-западный.
Видимость - горизонтальная дальность видимости в метрах или километрах. При видимости от 1 до 10 км при отсутствии осадков обычно наблюдается дымка, при ухудшении видимости до 1 км и менее - туман. В сухую погоду видимость может ухудшаться дымом, пылью или мглою.
Явления - указаны атмосферные явления, наблюдавшиеся в срок или в последний час перед сроком; фигурными скобками обозначены явления, наблюдавшиеся между сроками (за 1-3 часа до срока); квадратными скобками обозначены град или гололедные отложения с указанием их диаметра в мм.
Облачность - указаны через наклонную черту общая и нижняя облачность в баллах и высота нижней границы облаков в метрах; квадратными скобками обозначены формы облаков: Ci - перистые, Cs - перисто-слоистые, Cc - перисто-кучевые, Ac - высококучевые, As - высокослоистые, Sc - слоисто-кучевые, Ns - слоисто-дождевые, Cu - кучевые, Cb - кучево-дождевые. Подробнее классификацию облаков см. в Атласе облаков (PDF).
T - Температура воздуха - температура, измеренная на высоте 2 м над землей.
Td - Температура точки росы - температура, при понижении до которой содержащийся в воздухе водяной пар достигнет насыщения.
f - Относительная влажность воздуха - влажноcть воздуха, измеренная на высоте 2 м над землей.
Te - Эффективная температура - температура, которую ощущает одетый по сезону человек в тени. Характеристика душности погоды. При расчете учитывается влияние влажности воздуха и скорости ветра на теплоощущения человека.
Tes - Эффективная температура на солнце - температура, которую ощущает человек, с поправкой на солнечный нагрев. Характеристика знойности погоды. Зависит от высоты солнца над горизонтом, облачности и скорости ветра. Ночью, в пасмурную погоду, а также при ветре 12 м/с и более поправка равна нулю.
P - Атмосферное давление - приведенное к уровню моря атмосферное давление.
Po - Атмосферное давление - измеренное на уровне метеостанции атмосферное давление.
Tmin - Минимальная температура - минимум температуры воздуха на высоте 2 м над землей.
Tmax - Максимальная температура - максимум температуры воздуха на высоте 2 м над землей.
R - Количество осадков - Количество выпавших осадков, мм. При наведении курсора мыши на число - период времени, за который выпало указанное количество осадков.
S - Снежный покров - Высота снежного покрова, см. При наведении курсора мыши на число - состояние снежного покрова и степень покрытия местности в баллах.